• In Deutschland
  • Länderverzeichnis
  • Für 7 Tage
  • Wassertemperatur
  • Satellitenkarten
  • Wetterkarte
  • Widgets
  • user-avatar
    Anmelden

    Stündliche Wetter Mbandaka

    Heute, 20 September, Donnerstag

    Zeit Temperatur Niederschläge Wind Luftdruck Luftfeuchtigkeit
    00:00 +23°C° 0.1 mm 0 m/S 730 mmHg 81%
    01:00 +25°C° 0 mm 1 m/S 730 mmHg 80%
    02:00 +23°C° 0 mm 0 m/S 730 mmHg 81%
    03:00 +22°C° 0 mm 0 m/S 730 mmHg 81%
    04:00 +22°C° 0 mm 0 m/S 730 mmHg 82%
    05:00 +23°C° 0 mm 0 m/S 730 mmHg 80%
    06:00 +24°C° 0 mm 0 m/S 731 mmHg 77%
    07:00 +25°C° 0 mm 0 m/S 731 mmHg 73%
    08:00 +30°C° 0.1 mm 1 m/S 731 mmHg 65%
    09:00 +32°C° 0.1 mm 1 m/S 731 mmHg 57%
    10:00 +35°C° 0.1 mm 1 m/S 732 mmHg 48%
    11:00 +36°C° 0.2 mm 1 m/S 731 mmHg 46%
    12:00 +34°C° 0.2 mm 0 m/S 730 mmHg 43%
    13:00 +35°C° 0 mm 0 m/S 730 mmHg 40%
    14:00 +35°C° 0 mm 0 m/S 729 mmHg 41%
    15:00 +34°C° 0 mm 0 m/S 729 mmHg 43%
    16:00 +33°C° 0 mm 0 m/S 728 mmHg 44%
    17:00 +31°C° 0 mm 0 m/S 728 mmHg 50%
    18:00 +29°C° 0 mm 0 m/S 728 mmHg 57%
    19:00 +27°C° 0 mm 0 m/S 729 mmHg 63%
    20:00 +27°C° 0 mm 0 m/S 729 mmHg 64%
    21:00 +26°C° 0 mm 0 m/S 729 mmHg 66%
    22:00 +26°C° 0 mm 0 m/S 729 mmHg 68%
    23:00 +25°C° 0 mm 0 m/S 729 mmHg 70%

    Morgen, 21 September, Freitag

    Zeit Temperatur Niederschläge Wind Luftdruck Luftfeuchtigkeit
    00:00 +25°C° 0 mm 0 m/S 729 mmHg 71%
    01:00 +25°C° 0 mm 0 m/S 729 mmHg 73%
    02:00 +24°C° 0 mm 0 m/S 729 mmHg 75%
    03:00 +24°C° 0 mm 0 m/S 728 mmHg 76%
    04:00 +24°C° 0 mm 0 m/S 728 mmHg 78%
    05:00 +25°C° 0 mm 0 m/S 729 mmHg 75%
    06:00 +26°C° 0 mm 0 m/S 730 mmHg 72%
    07:00 +26°C° 0 mm 0 m/S 730 mmHg 69%
    08:00 +29°C° 0.7 mm 0 m/S 731 mmHg 64%
    09:00 +31°C° 0.7 mm 0 m/S 731 mmHg 59%
    10:00 +35°C° 0.7 mm 1 m/S 732 mmHg 54%
    11:00 +36°C° 0.1 mm 1 m/S 731 mmHg 50%
    12:00 +36°C° 0.1 mm 1 m/S 730 mmHg 46%
    13:00 +36°C° 0.1 mm 1 m/S 729 mmHg 41%
    14:00 +36°C° 0 mm 1 m/S 728 mmHg 41%
    15:00 +36°C° 0 mm 1 m/S 728 mmHg 41%
    16:00 +36°C° 0 mm 1 m/S 727 mmHg 41%
    17:00 +34°C° 0.1 mm 1 m/S 727 mmHg 48%
    18:00 +31°C° 0.1 mm 1 m/S 727 mmHg 56%
    19:00 +27°C° 0.1 mm 0 m/S 728 mmHg 64%
    20:00 +26°C° 0.1 mm 0 m/S 728 mmHg 67%
    21:00 +26°C° 0.1 mm 0 m/S 729 mmHg 70%
    22:00 +25°C° 0.1 mm 0 m/S 729 mmHg 73%
    23:00 +24°C° 0.7 mm 0 m/S 729 mmHg 79%

    übermorgen, 22 September, Samstag

    Zeit Temperatur Niederschläge Wind Luftdruck Luftfeuchtigkeit
    00:00 +25°C° 0.7 mm 1 m/S 729 mmHg 85%
    01:00 +25°C° 0.7 mm 1 m/S 729 mmHg 91%
    02:00 +24°C° 0.3 mm 1 m/S 729 mmHg 92%
    03:00 +24°C° 0.3 mm 1 m/S 729 mmHg 93%
    04:00 +24°C° 0.3 mm 1 m/S 729 mmHg 94%
    05:00 +24°C° 0.4 mm 1 m/S 729 mmHg 94%
    06:00 +25°C° 0.4 mm 1 m/S 730 mmHg 94%
    07:00 +25°C° 0.4 mm 2 m/S 731 mmHg 94%
    08:00 +28°C° 0 mm 2 m/S 731 mmHg 82%
    09:00 +30°C° 0 mm 2 m/S 731 mmHg 70%
    10:00 +34°C° 0 mm 2 m/S 732 mmHg 59%
    11:00 +34°C° 1.4 mm 2 m/S 731 mmHg 60%
    12:00 +34°C° 1.4 mm 2 m/S 730 mmHg 62%
    13:00 +34°C° 1.4 mm 2 m/S 729 mmHg 64%
    14:00 +34°C° 0.3 mm 2 m/S 728 mmHg 61%
    15:00 +34°C° 0.3 mm 2 m/S 728 mmHg 58%
    16:00 +33°C° 0.3 mm 1 m/S 728 mmHg 55%
    17:00 +31°C° 0.2 mm 2 m/S 728 mmHg 63%
    18:00 +30°C° 0.2 mm 2 m/S 728 mmHg 71%
    19:00 +28°C° 0.2 mm 2 m/S 729 mmHg 79%
    20:00 +27°C° 0 mm 2 m/S 729 mmHg 81%
    21:00 +27°C° 0 mm 1 m/S 729 mmHg 83%
    22:00 +26°C° 0 mm 1 m/S 730 mmHg 85%
    23:00 +26°C° 0 mm 1 m/S 730 mmHg 86%

    23 September, Sonntag

    Zeit Temperatur Niederschläge Wind Luftdruck Luftfeuchtigkeit
    00:00 +26°C° 0 mm 1 m/S 729 mmHg 86%
    01:00 +25°C° 0 mm 1 m/S 729 mmHg 87%
    02:00 +25°C° 1.2 mm 1 m/S 729 mmHg 90%
    03:00 +25°C° 1.2 mm 1 m/S 729 mmHg 93%
    04:00 +24°C° 1.2 mm 1 m/S 729 mmHg 97%
    05:00 +24°C° 0.5 mm 1 m/S 730 mmHg 96%
    06:00 +25°C° 0.5 mm 1 m/S 731 mmHg 96%
    07:00 +25°C° 0.5 mm 1 m/S 732 mmHg 96%
    08:00 +25°C° 4 mm 1 m/S 732 mmHg 95%
    09:00 +25°C° 4 mm 1 m/S 733 mmHg 95%
    10:00 +25°C° 4 mm 1 m/S 733 mmHg 95%
    11:00 +25°C° 3 mm 2 m/S 732 mmHg 95%
    12:00 +25°C° 3 mm 2 m/S 731 mmHg 95%
    13:00 +25°C° 3 mm 2 m/S 730 mmHg 95%
    14:00 +25°C° 0.1 mm 2 m/S 730 mmHg 92%
    15:00 +26°C° 0.1 mm 1 m/S 730 mmHg 89%
    16:00 +26°C° 0.1 mm 1 m/S 729 mmHg 86%
    17:00 +26°C° 0 mm 1 m/S 729 mmHg 88%
    18:00 +23°C° 0 mm 0 m/S 730 mmHg 91%
    19:00 +22°C° 0 mm 0 m/S 730 mmHg 94%
    20:00 +22°C° 0 mm 0 m/S 730 mmHg 95%
    21:00 +21°C° 0 mm 0 m/S 731 mmHg 97%
    22:00 +21°C° 0 mm 0 m/S 731 mmHg 98%
    23:00 +21°C° 0 mm 0 m/S 731 mmHg 98%

    24 September, Montag

    Zeit Temperatur Niederschläge Wind Luftdruck Luftfeuchtigkeit
    00:00 +21°C° 0 mm 0 m/S 731 mmHg 99%
    01:00 +22°C° 0 mm 1 m/S 730 mmHg 99%
    02:00 +22°C° 0 mm 1 m/S 730 mmHg 98%
    03:00 +22°C° 0 mm 1 m/S 730 mmHg 98%
    04:00 +20°C° 0 mm 0 m/S 730 mmHg 97%
    05:00 +21°C° 0 mm 0 m/S 731 mmHg 94%
    06:00 +22°C° 0 mm 0 m/S 732 mmHg 91%
    07:00 +22°C° 0 mm 0 m/S 732 mmHg 89%
    08:00 +26°C° 0 mm 1 m/S 732 mmHg 79%
    09:00 +28°C° 0 mm 1 m/S 732 mmHg 70%
    10:00 +31°C° 0 mm 1 m/S 732 mmHg 61%
    11:00 +32°C° 0 mm 1 m/S 731 mmHg 54%
    12:00 +34°C° 0 mm 1 m/S 730 mmHg 48%
    13:00 +36°C° 0 mm 1 m/S 729 mmHg 42%
    14:00 +35°C° 0 mm 1 m/S 729 mmHg 42%
    15:00 +35°C° 0 mm 1 m/S 728 mmHg 42%
    16:00 +33°C° 0 mm 0 m/S 728 mmHg 43%
    17:00 +30°C° 0.2 mm 0 m/S 728 mmHg 52%
    18:00 +28°C° 0.2 mm 0 m/S 729 mmHg 61%
    19:00 +27°C° 0.2 mm 1 m/S 729 mmHg 70%
    20:00 +25°C° 0.2 mm 0 m/S 730 mmHg 73%
    21:00 +24°C° 0.2 mm 0 m/S 730 mmHg 76%
    22:00 +24°C° 0.2 mm 0 m/S 730 mmHg 79%
    23:00 +23°C° 0 mm 0 m/S 730 mmHg 80%

    25 September, Dienstag

    Zeit Temperatur Niederschläge Wind Luftdruck Luftfeuchtigkeit
    00:00 +25°C° 0 mm 1 m/S 729 mmHg 82%
    01:00 +25°C° 0 mm 1 m/S 729 mmHg 83%
    02:00 +24°C° 0.5 mm 1 m/S 729 mmHg 87%
    03:00 +24°C° 0.5 mm 1 m/S 730 mmHg 91%
    04:00 +23°C° 0.5 mm 1 m/S 730 mmHg 94%
    05:00 +22°C° 1 mm 0 m/S 731 mmHg 94%
    06:00 +22°C° 1 mm 0 m/S 731 mmHg 95%
    07:00 +23°C° 1 mm 0 m/S 732 mmHg 95%
    08:00 +24°C° 1.6 mm 0 m/S 732 mmHg 92%
    09:00 +27°C° 1.6 mm 1 m/S 732 mmHg 89%
    10:00 +29°C° 1.6 mm 1 m/S 732 mmHg 85%
    11:00 +30°C° 0.8 mm 1 m/S 731 mmHg 77%
    12:00 +31°C° 0.8 mm 1 m/S 730 mmHg 68%
    13:00 +33°C° 0.8 mm 1 m/S 730 mmHg 59%
    14:00 +32°C° 0.1 mm 1 m/S 729 mmHg 59%
    15:00 +32°C° 0.1 mm 1 m/S 729 mmHg 60%
    16:00 +32°C° 0.1 mm 1 m/S 729 mmHg 60%
    17:00 +30°C° 0.1 mm 1 m/S 730 mmHg 68%
    18:00 +28°C° 0.1 mm 1 m/S 730 mmHg 76%
    19:00 +27°C° 0.1 mm 1 m/S 730 mmHg 85%
    20:00 +24°C° 0.1 mm 0 m/S 730 mmHg 87%
    21:00 +24°C° 0.1 mm 0 m/S 731 mmHg 89%
    22:00 +23°C° 0.1 mm 0 m/S 731 mmHg 91%
    23:00 +23°C° 0 mm 0 m/S 730 mmHg 91%
    Mehr zeigen